Theta_e
284 280 279 278 279 279 279 279 277 278 282 281 280 280 282 286 284 283 283 283 285 286 289 290 291 292 294 295 294 293 297 299 300 302 303 304 306 308 311 315 318 321 324 327
279 278 279 283 283 281 280 278 275 280 281 281 279 279 283 282 282 283 283 284 284 286 288 290 291 291 293 296 298 298 297 297 298 300 301 303 304 307 307 307 308 310 315 320
277 279 283 281 280 279 279 278 277 277 281 280 277 278 279 281 283 284 285 286 286 287 288 289 289 290 293 294 294 294 295 296 296 298 299 300 300 300 301 302 303 306 309 313
278 281 281 280 279 280 277 280 280 279 275 269 277 271 277 279 280 283 284 285 286 286 287 287 288 290 292 294 293 292 294 295 296 296 297 297 296 295 297 297 299 302 305 308
279 280 280 279 280 281 278 281 280 280 272 267 269 268 276 278 280 282 283 285 285 285 285 286 287 289 290 291 292 293 293 293 294 295 295 295 295 296 297 297 297 298 300 302
278 282 280 280 282 281 282 279 278 275 270 266 267 269 274 278 279 280 282 283 284 284 285 286 287 288 289 290 291 292 291 292 293 294 294 294 294 294 294 295 295 297 298 300
279 280 281 282 279 281 280 275 268 269 267 270 272 268 276 280 279 280 281 283 283 283 284 285 285 286 288 288 289 290 290 290 292 292 293 293 294 294 294 294 294 295 296 297
273 274 280 282 279 277 277 275 269 265 266 268 272 268 277 280 281 281 281 282 282 283 283 284 285 286 287 288 289 289 290 290 291 291 292 293 293 294 294 294 294 295 296 297
272 274 280 282 281 278 277 274 275 264 259 263 269 272 277 280 280 280 280 281 282 282 283 285 285 285 286 287 288 289 290 290 290 291 292 292 293 293 293 294 295 295 296 296
276 273 278 280 280 280 278 279 272 268 265 263 268 268 275 279 279 280 279 280 280 282 284 284 284 285 287 288 289 289 290 290 291 292 292 291 291 292 292 293 293 294 295 294
279 276 274 279 277 275 276 275 274 273 270 266 264 275 276 278 280 280 280 280 281 283 282 283 285 286 287 288 289 291 291 290 289 290 290 290 290 290 291 291 292 293 294 294
281 278 268 274 275 277 278 276 275 269 267 268 268 272 281 280 280 280 280 282 282 281 282 283 284 285 286 289 290 289 288 288 288 288 288 289 290 289 289 289 290 292 292 293
281 275 265 271 273 276 276 277 277 274 272 268 266 275 280 279 279 281 280 282 281 282 283 283 284 284 289 289 288 287 287 287 287 287 287 288 288 288 288 289 290 291 291 292
285 275 272 274 276 274 273 275 277 275 267 271 273 278 283 285 284 284 281 280 281 281 282 282 283 288 289 288 286 286 286 286 286 286 286 286 287 288 288 289 290 290 291 291
282 269 271 271 273 273 275 275 275 275 276 272 279 277 282 284 284 284 284 281 279 279 281 281 284 287 287 286 286 285 286 286 286 285 286 286 288 289 289 289 289 290 290 291
281 273 268 266 270 273 272 275 275 276 277 277 277 277 284 285 284 280 279 278 277 278 279 280 287 287 286 285 285 284 285 285 286 285 285 286 287 288 288 289 291 290 289 290
277 274 270 267 267 264 268 273 275 277 278 278 274 280 284 282 280 279 273 277 277 277 277 285 286 286 285 285 285 284 284 286 285 284 285 286 286 286 287 289 290 288 289 291
278 275 275 267 263 265 277 274 275 276 278 279 279 280 281 280 278 279 278 277 278 274 280 286 286 286 286 285 284 284 285 285 284 284 284 285 285 285 285 286 287 288 289 290
281 278 271 270 257 269 276 276 272 272 274 278 278 280 281 278 277 277 279 279 277 271 284 286 287 286 286 285 284 283 284 284 284 283 283 284 285 285 285 285 285 287 287 287
281 281 276 264 267 262 272 275 275 274 271 279 278 278 278 276 273 275 278 280 277 277 285 286 287 287 286 285 284 283 283 283 282 284 284 284 285 285 285 285 285 286 287 286
270 271 271 270 269 269 276 277 276 270 278 277 276 277 276 276 277 278 279 279 278 274 278 287 286 286 286 285 285 283 283 282 283 285 285 285 285 285 285 285 285 285 285 286
268 267 265 269 267 266 277 275 274 279 279 279 276 276 277 278 279 279 280 279 279 275 277 286 285 286 286 285 285 283 283 285 285 285 285 285 285 285 285 285 285 285 286 285
270 274 270 272 272 280 279 280 282 281 279 280 280 279 279 278 279 279 278 278 279 279 284 285 285 282 283 284 284 283 283 285 285 283 283 284 285 285 285 285 285 285 285 285
272 276 274 275 280 279 280 281 282 283 281 283 282 282 280 279 279 279 279 278 279 281 282 284 281 279 279 281 283 283 284 285 284 282 284 284 284 284 285 285 285 285 284 284
276 277 276 273 279 280 284 283 284 284 285 282 283 281 281 281 280 279 278 278 278 280 281 282 283 281 281 278 278 278 283 285 284 283 283 284 284 284 284 284 284 284 284 285
274 275 275 275 280 282 283 286 285 285 284 283 282 282 280 280 280 279 278 277 278 279 279 278 282 281 283 274 276 275 276 280 283 283 282 282 283 283 284 284 284 287 286 287
Wind_Speed
3 5 3 4 4 4 4 1 5 5 2 6 5 13 25 21 12 11 8 7 7 8 6 7 6 6 7 5 5 6 4 4 3 2 2 2 2 3 3 4 7 8 8 10
4 1 2 6 4 3 2 1 6 6 2 3 8 22 25 10 6 4 6 6 6 4 6 7 6 6 7 7 6 6 6 5 3 2 3 3 3 4 4 4 6 8 8 9
2 1 4 2 2 1 3 4 2 5 8 1 10 9 8 3 4 4 5 5 5 6 6 7 8 8 7 7 7 6 6 6 5 6 3 3 2 2 3 6 7 9 9 9
2 1 3 2 3 5 3 3 2 4 5 4 6 9 11 3 9 7 8 7 7 4 3 5 8 9 8 10 6 7 8 9 9 8 6 9 10 10 9 9 9 7 7 10
1 5 4 3 4 5 3 1 1 2 4 4 6 4 14 2 6 5 6 7 7 8 5 8 8 8 9 10 10 10 11 11 12 10 10 9 12 10 9 10 11 13 11 10
3 1 2 2 1 1 1 2 3 3 3 4 3 4 9 5 4 3 2 3 3 5 6 8 9 9 9 9 10 11 12 14 13 12 13 14 15 14 11 11 11 11 11 9
1 2 0 1 2 1 1 4 5 8 6 6 2 1 15 8 5 5 5 6 7 7 7 8 12 13 11 12 13 11 12 15 15 13 13 14 16 16 17 16 13 13 11 10
3 6 5 3 3 3 1 4 7 6 3 6 1 9 10 6 6 8 8 9 7 9 7 10 13 12 14 15 13 15 16 17 16 15 14 14 14 11 13 16 14 12 10 10
4 4 1 1 1 1 2 2 3 8 2 3 4 8 14 5 7 6 9 7 11 7 10 14 15 12 14 14 16 17 18 18 16 14 14 14 14 15 14 17 14 10 13 11
1 3 2 1 2 4 1 6 4 4 2 7 7 8 8 5 6 3 5 8 7 9 13 12 12 12 12 14 16 15 14 17 18 18 16 16 15 15 15 16 18 18 16 15
3 4 2 2 7 9 3 3 3 3 4 5 5 10 10 9 6 7 8 7 9 13 12 13 13 12 14 15 13 16 16 17 16 16 16 16 15 14 15 16 17 17 16 15
3 3 4 10 1 2 2 6 6 6 6 3 1 17 5 8 7 5 9 9 9 10 10 11 11 13 15 16 18 17 16 15 16 16 18 16 15 15 15 16 17 17 17 16
3 1 4 8 4 4 5 5 4 4 3 8 6 14 2 3 5 7 9 11 10 12 12 12 12 14 17 16 16 16 16 17 16 16 16 17 16 15 16 17 17 17 17 17
3 2 7 9 3 3 5 5 8 5 4 4 16 32 20 28 17 14 8 9 12 12 13 11 13 15 15 15 16 16 16 16 16 16 17 19 17 16 15 16 17 17 17 16
6 5 4 5 7 5 13 13 11 17 15 12 29 23 29 24 18 17 16 9 10 12 12 13 15 16 15 15 16 17 16 16 15 15 15 16 16 15 15 16 16 15 15 15
4 4 3 6 5 8 16 18 18 21 23 27 30 37 34 29 21 9 8 9 9 12 10 13 16 17 16 16 17 16 15 15 15 16 15 15 14 14 14 14 14 14 13 14
8 5 3 7 3 6 14 13 26 23 14 28 22 36 21 19 11 5 7 8 9 9 8 13 15 15 14 15 14 15 15 15 13 14 13 13 13 12 11 10 4 9 11 11
7 6 4 4 3 5 7 3 6 20 20 19 23 24 18 12 7 7 8 8 6 7 7 12 13 14 14 13 13 15 14 12 12 12 12 12 11 10 8 8 5 4 5 8
4 5 4 3 4 11 12 5 4 8 10 25 27 27 21 7 7 7 5 6 3 4 7 8 11 12 13 12 15 14 13 12 11 12 11 11 11 8 7 9 9 7 8 7
5 4 5 3 4 8 7 3 3 2 9 9 12 18 12 5 3 6 2 3 4 3 4 6 11 11 11 12 12 13 12 13 13 13 11 9 10 9 9 8 9 8 9 9
5 3 14 7 5 12 14 5 2 1 10 8 1 7 7 5 7 1 4 5 2 3 5 5 10 9 10 10 10 11 10 12 13 10 10 10 10 10 9 9 8 9 9 11
12 11 6 5 4 16 10 7 10 7 5 4 3 4 6 7 8 6 8 7 4 4 4 4 6 9 8 11 8 10 11 11 10 10 11 11 10 8 7 9 8 9 10 11
5 11 10 14 14 3 10 6 13 5 5 8 5 5 7 8 7 6 6 7 5 4 4 3 5 7 9 10 9 8 9 9 10 9 10 11 11 10 10 11 9 8 9 9
5 5 5 4 15 19 11 11 13 13 13 15 11 14 7 11 9 7 7 7 5 4 5 3 4 5 7 10 10 7 7 8 8 8 10 9 10 11 11 9 8 8 7 7
8 12 9 9 15 8 14 14 18 20 15 14 18 15 19 16 18 9 7 8 6 6 5 4 3 4 6 6 9 9 8 6 7 8 8 8 8 10 12 12 9 9 9 8
6 10 9 11 8 9 6 7 7 14 15 14 12 16 15 13 17 8 8 8 6 7 5 4 4 3 6 3 6 7 8 7 6 8 7 6 6 7 7 8 11 24 21 20
Wind_Direction
352 72 198 193 145 131 121 243 264 258 323 317 247 275 283 295 280 265 244 254 269 266 280 289 300 303 300 283 266 248 223 215 197 214 232 238 232 258 233 241 273 274 257 243
25 168 153 117 115 117 126 274 274 278 237 266 308 293 280 297 282 275 251 244 240 267 298 310 320 308 299 284 265 259 256 261 249 208 224 224 204 246 267 263 256 252 264 257
161 123 139 115 146 173 217 191 250 253 323 160 306 294 318 341 327 305 259 236 234 242 291 313 317 308 293 268 262 271 272 270 262 248 264 261 238 241 254 257 257 247 235 248
216 105 146 143 240 153 274 187 194 298 36 280 14 279 296 308 300 254 242 235 242 266 252 275 294 289 281 264 263 268 273 274 270 243 226 232 255 259 250 247 252 244 233 242
257 162 177 206 226 179 215 133 240 107 105 48 332 60 271 352 281 250 246 239 233 230 234 260 258 266 277 280 272 270 262 257 260 252 236 243 251 258 259 256 250 255 254 232
252 303 197 230 73 217 102 140 70 67 106 26 239 123 277 250 209 288 231 200 241 279 282 272 267 269 270 274 270 270 273 275 271 260 253 247 249 250 250 246 249 247 243 241
204 228 288 172 160 45 76 39 330 348 6 229 135 26 249 273 244 237 263 259 269 270 287 282 293 297 294 284 278 273 271 274 272 262 256 256 256 256 257 259 254 249 242 238
154 316 183 184 234 179 119 142 154 237 260 276 50 238 252 229 262 250 254 263 281 297 287 279 284 289 292 291 288 281 280 281 279 273 269 270 264 266 265 259 253 248 240 240
135 266 50 310 74 26 167 114 131 101 68 16 225 273 282 278 263 259 251 265 274 274 276 286 291 291 287 283 289 292 293 290 287 285 287 279 277 269 263 258 248 246 250 250
59 334 8 148 111 27 224 148 75 3 316 290 279 274 241 276 238 204 218 244 269 272 289 292 294 298 292 293 296 296 296 293 293 292 287 283 276 270 268 263 258 254 249 243
121 114 287 25 205 178 147 204 73 109 156 193 300 268 209 224 215 233 242 250 269 278 285 291 304 300 300 299 304 312 303 304 299 293 286 280 274 272 270 261 259 257 254 247
160 152 220 215 303 321 196 197 167 138 232 233 157 265 198 225 250 241 247 267 273 272 283 294 302 308 306 312 319 311 306 304 300 295 291 280 270 260 255 254 250 251 248 243
184 204 339 329 11 353 231 196 176 110 94 202 166 265 295 223 232 248 253 285 290 301 308 323 318 313 311 318 314 308 312 305 300 296 292 285 278 267 259 255 251 244 240 235
137 216 196 240 185 148 237 216 204 172 163 207 227 276 265 278 289 289 274 290 301 313 322 315 314 309 317 318 311 307 306 303 299 296 291 291 282 270 261 254 248 238 229 229
164 237 208 250 237 238 246 239 202 215 220 216 269 250 276 275 293 297 304 301 307 308 315 317 312 316 319 315 309 315 307 306 307 299 295 290 287 280 269 258 246 234 221 218
179 228 129 279 260 242 262 246 230 226 226 247 258 272 259 285 291 293 285 295 302 303 307 314 314 320 321 318 319 314 312 312 310 311 305 301 298 296 287 273 251 216 207 208
170 168 160 261 322 326 284 232 219 226 223 227 244 249 283 280 278 265 271 281 283 288 304 312 318 322 318 313 315 313 320 313 314 315 318 315 315 311 311 302 225 174 187 192
173 157 175 264 359 261 253 253 217 228 246 230 249 260 259 267 279 274 239 236 273 286 305 318 322 323 315 314 319 325 325 319 320 328 329 329 326 331 337 12 43 112 167 178
177 149 167 243 208 305 297 328 162 187 264 236 235 250 261 296 314 303 241 197 220 224 280 304 321 311 310 323 335 333 337 332 336 340 344 340 337 339 1 28 33 46 73 77
189 223 191 143 222 229 224 217 212 263 282 292 197 239 250 125 298 259 210 272 275 270 287 309 324 316 321 337 342 348 344 350 356 348 351 349 352 354 18 40 46 55 72 74
153 189 215 208 249 278 246 213 186 108 291 337 280 276 150 199 210 183 280 293 211 217 283 308 321 324 324 330 340 355 353 358 359 350 2 9 11 16 18 32 47 68 75 80
167 166 191 148 188 266 155 90 177 222 308 310 293 249 271 263 293 275 286 285 262 259 291 318 318 326 327 340 348 357 10 348 1 359 19 19 26 30 28 45 45 57 78 85
227 187 179 188 210 246 201 214 216 180 226 281 267 263 248 254 248 266 271 274 255 229 259 282 308 320 327 342 347 4 358 355 4 13 22 23 27 33 35 45 50 56 56 70
245 179 217 91 253 243 230 253 268 255 247 263 252 259 222 239 235 242 260 258 241 225 237 245 310 329 333 342 337 8 1 3 2 24 29 34 39 43 39 45 45 55 56 66
187 152 202 259 268 322 269 240 250 258 252 263 269 248 250 249 257 227 246 248 228 219 212 241 264 321 328 335 334 341 0 16 32 29 25 35 42 51 59 54 51 59 48 61
185 182 184 228 195 205 228 237 265 240 246 247 257 275 251 232 246 230 238 228 202 209 196 214 235 248 302 330 334 338 352 8 39 49 41 35 46 48 56 66 68 55 62 64